Погода в Богородском

Россия / Хабаровский край     52°22′02″N   140°26′13″E
темп.,
°C
ветер,
м/с
пор.,
м/с
влажн.,
%
обл.,
%
осадки,
мм/ч
давл.,
гПа
погр.,
м
6 марта, сб
сб601:00−30з129626 0.0 102122
04:00−32з119518 0.0 102119
07:00−32зюз12920 0.0 102119
10:00−24зсз411740 0.0 10211096
13:00−19зсз6117166 0.0 10201348
16:00−18зсз5107383 0.0 10191326
19:00−20з2495100 0.0 1019117
22:00−22зюз229894 0.1 102068
7 марта, вс
вс701:00−25ююз129750 0.0 101920
04:00−27ю119736 0.0 101919
07:00−27ю119913 0.0 102019
10:00−21юз229024 0.0 1020221
13:00−16юз23752 0.0 1019483
16:00−15юз25801 0.0 1018539
19:00−18ююз129760 0.0 101825
22:00−21ю129979 0.1 101820
8 марта, пн
пн801:00−22ююв1110082 0.0 101820
04:00−23ю129871 0.0 101820
07:00−24ю12943 0.0 101820
10:00−18ююз23902 0.0 1017250
13:00−13юз258329 0.0 1016462
16:00−10ююз398753 0.1 1014657
19:00−13ю279399 0.0 1013179
22:00−15ю239495 0.0 101355
9 марта, вт
вт901:00−16ююв239699 0.0 101152
04:00−15ююв2596100 0.0 1010149
07:00−15ююв2296100 0.1 101049
10:00−10ююз2593100 1.3 1009457
13:00−6юз2386100 0.5 1009546
16:00−5зсз1183100 0.6 1009494
19:00−10с129491 0.1 101121
22:00−10св229395 0.1 101325
10 марта, ср
ср1001:00−13св229360 0.0 101422
04:00−15ссв129460 0.0 101622
07:00−17с119537 0.0 101820
10:00−10зюз128735 0.0 1019229
13:00−6зюз228350 0.0 1018410
16:00−5юз127851 0.0 1017473
19:00−10юв128811 0.0 101721
22:00−11ююв229051 0.0 101830